| time (UTC) | temp C | wind direction | speed KPH | gust KPH | rain 1hr cm | rain 24hr cm | rain mn cm | humidity % | barometer mb |
| 20260504081542 | 17 | 117 | 0.0 | 4.8 | 0.00 | 0.00 | 0.00 | 89 | 1012.5 |
| 20260504050019 | 16 | 95 | 3.2 | 11.3 | 0.00 | 0.00 | 0.00 | 90 | 1011.9 |
| 20260504044524 | 16 | 108 | 3.2 | 9.7 | 0.00 | 0.00 | 0.00 | 90 | 1011.8 |
| 20260504043018 | 16 | 98 | 1.6 | 4.8 | 0.00 | 0.00 | 0.00 | 91 | 1011.8 |
| 20260504041516 | 16 | 45 | 0.0 | 4.8 | 0.00 | 0.00 | 0.00 | 91 | 1011.8 |
| 20260504040021 | 16 | 42 | 1.6 | 6.4 | 0.00 | 0.00 | 0.00 | 90 | 1011.8 |
| 20260504034513 | 16 | 37 | 0.0 | 6.4 | 0.00 | 0.00 | 0.00 | 90 | 1011.9 |
| 20260504033011 | 16 | 33 | 1.6 | 8.0 | 0.00 | 0.00 | 0.00 | 90 | 1012.0 |
| 20260504031509 | 16 | 36 | 3.2 | 8.0 | 0.00 | 0.00 | 0.00 | 90 | 1012.2 |
| 20260504030007 | 17 | 45 | 0.0 | 6.4 | 0.00 | 0.00 | 0.00 | 90 | 1012.3 |
| 20260504024508 | 17 | 110 | 1.6 | 4.8 | 0.00 | 0.00 | 0.00 | 90 | 1012.3 |
| 20260504023004 | 17 | 112 | 0.0 | 6.4 | 0.00 | 0.00 | 0.00 | 90 | 1012.4 |
| 20260504021502 | 17 | 105 | 3.2 | 9.7 | 0.00 | 0.00 | 0.00 | 90 | 1012.4 |
| 20260504020000 | 17 | 105 | 1.6 | 4.8 | 0.00 | 0.00 | 0.00 | 90 | 1012.4 |
| 20260504014618 | 17 | 109 | 0.0 | 4.8 | 0.00 | 0.00 | 0.00 | 90 | 1012.5 |
| 20260504013103 | 17 | 109 | 3.2 | 6.4 | 0.00 | 0.00 | 0.00 | 89 | 1012.5 |
| 20260504011559 | 17 | 113 | 1.6 | 9.7 | 0.00 | 0.00 | 0.00 | 89 | 1012.7 |
| 20260504010059 | 17 | 107 | 1.6 | 6.4 | 0.00 | 0.00 | 0.00 | 88 | 1012.8 |
| 20260504004553 | 17 | 103 | 3.2 | 6.4 | 0.00 | 0.00 | 0.00 | 88 | 1012.8 |
| 20260504003059 | 17 | 94 | 3.2 | 9.7 | 0.00 | 0.00 | 0.00 | 88 | 1012.8 |
| 20260504001551 | 17 | 108 | 3.2 | 9.7 | 0.00 | 0.00 | 0.00 | 87 | 1012.9 |
| 20260504000049 | 17 | 105 | 1.6 | 9.7 | 0.00 | 0.00 | 0.00 | 87 | 1012.9 |
| 20260503234550 | 17 | 113 | 3.2 | 11.3 | 0.00 | 0.00 | 0.00 | 87 | 1013.0 |
| 20260503233046 | 17 | 112 | 3.2 | 11.3 | 0.00 | 0.00 | 0.00 | 87 | 1013.0 |
| 20260503231544 | 17 | 117 | 8.0 | 12.9 | 0.00 | 0.00 | 0.00 | 86 | 1013.1 |
| 20260503230047 | 17 | 111 | 1.6 | 9.7 | 0.00 | 0.00 | 0.00 | 86 | 1013.2 |
| 20260503224542 | 17 | 110 | 4.8 | 11.3 | 0.00 | 0.00 | 0.00 | 86 | 1013.3 |
| 20260503223040 | 18 | 98 | 4.8 | 9.7 | 0.00 | 0.00 | 0.00 | 85 | 1013.2 |
| 20260503221536 | 18 | 102 | 3.2 | 11.3 | 0.00 | 0.00 | 0.00 | 84 | 1013.4 |
| 20260503220045 | 18 | 105 | 3.2 | 9.7 | 0.00 | 0.00 | 0.00 | 84 | 1013.5 |
| 20260503214534 | 18 | 126 | 6.4 | 12.9 | 0.00 | 0.00 | 0.00 | 84 | 1013.6 |
| 20260503213033 | 18 | 111 | 4.8 | 16.1 | 0.00 | 0.00 | 0.00 | 83 | 1013.6 |
| 20260503211532 | 18 | 107 | 4.8 | 11.3 | 0.00 | 0.00 | 0.00 | 83 | 1013.6 |
| 20260503210031 | 18 | 105 | 3.2 | 12.9 | 0.00 | 0.00 | 0.00 | 83 | 1013.6 |
| 20260503204531 | 18 | 99 | 3.2 | 14.5 | 0.00 | 0.00 | 0.00 | 83 | 1013.5 |
| 20260503203032 | 18 | 127 | 6.4 | 14.5 | 0.00 | 0.00 | 0.00 | 83 | 1013.4 |
| 20260503201529 | 18 | 109 | 8.0 | 17.7 | 0.00 | 0.00 | 0.00 | 83 | 1013.2 |
| 20260503200029 | 18 | 116 | 9.7 | 16.1 | 0.00 | 0.00 | 0.00 | 82 | 1013.0 |
| 20260503194528 | 18 | 112 | 9.7 | 16.1 | 0.00 | 0.00 | 0.00 | 82 | 1012.7 |
| 20260503193033 | 18 | 121 | 6.4 | 20.9 | 0.00 | 0.00 | 0.00 | 81 | 1012.4 |
| 20260503191527 | 18 | 114 | 11.3 | 20.9 | 0.00 | 0.00 | 0.00 | 80 | 1012.2 |
| 20260503190030 | 18 | 122 | 14.5 | 24.1 | 0.00 | 0.00 | 0.00 | 79 | 1011.9 |
| 20260503184525 | 18 | 123 | 14.5 | 24.1 | 0.00 | 0.00 | 0.00 | 78 | 1011.7 |
| 20260503183036 | 19 | 136 | 12.9 | 29.0 | 0.00 | 0.00 | 0.00 | 78 | 1011.4 |
| 20260503181624 | 19 | 105 | 14.5 | 27.4 | 0.00 | 0.00 | 0.00 | 77 | 1011.2 |
| 20260503180023 | 20 | 122 | 17.7 | 25.7 | 0.00 | 0.00 | 0.00 | 75 | 1011.2 |
| 20260503174523 | 20 | 135 | 14.5 | 25.7 | 0.00 | 0.00 | 0.00 | 75 | 1011.0 |
| 20260503173025 | 21 | 98 | 11.3 | 24.1 | 0.00 | 0.00 | 0.00 | 75 | 1010.7 |
| 20260503171520 | 21 | 92 | 16.1 | 25.7 | 0.00 | 0.00 | 0.00 | 74 | 1010.5 |